Chanute, KS

10:54 AM CDT on April 26, 2017 (GMT -0500)
Chanute Martin Johnson

Weather History for KCNU - September, 2013

Change the Weather History Date:

Sunday, September 1, 2013

  Actual Average Record
Temperature  
Mean Temperature 79 °F 76 °F  
Max Temperature 88 °F 87 °F 105 °F (2000)
Min Temperature 70 °F 65 °F 45 °F (1949)
Degree Days  
Heating Degree Days 0 0  
Month to date heating degree days 0 0  
Since 1 July heating degree days 0 1  
Cooling Degree Days 14 11  
Month to date cooling degree days 14 11  
Year to date cooling degree days 1281 1315  
Growing Degree Days 30 (Base 50)    
Moisture  
Dew Point 68 °F    
Average Humidity 70    
Maximum Humidity 87    
Minimum Humidity 53    
Precipitation  
Precipitation 0.00 in 0.11 in 1.98 in (1974)
Month to date precipitation 0.00 0.11  
Year to date precipitation 34.78 30.60  
Sea Level Pressure  
Sea Level Pressure 29.83 in    
Wind  
Wind Speed 8 mph (ESE)    
Max Wind Speed 22 mph    
Max Gust Speed 29 mph    
Visibility 10 miles    
Events      
T = Trace of Precipitation, MM = Missing Value Source: NWS Daily Summary

Daily Weather History Graph

Daily Weather History Graph

Search for Another Location

Airport or City:

Trip Planner

Search our weather history database for the weather conditions in past years. The results will help you decide how hot, cold, wet, or windy it might be!

Date:

Astronomy

Sep. 01, 2013 Rise Set
Actual Time 6:52 AM CDT 7:50 PM CDT
Civil Twilight 6:25 AM CDT 8:17 PM CDT
Nautical Twilight 5:53 AM CDT 8:49 PM CDT
Astronomical Twilight 5:20 AM CDT 9:22 PM CDT
Moon 3:17 AM CDT (9/1) 5:26 PM CDT (9/1)
Length of Visible Light 13h 51m
Length of Day
12h 58m
Waning Crescent, 13% of the Moon is Illuminated
Sep 1
Waning Crescent
Sep 5
New
Sep 12
First Quarter
Sep 19
Full
Sep 26
Last Quarter

Hourly Weather History & Observations

Time (CDT) Temp. Heat Index Dew Point Humidity Pressure Visibility Wind Dir Wind Speed Gust Speed Precip Events Conditions
12:52 AM 77.0 °F - 71.1 °F 82% 29.77 in 9.0 mi SSE 4.6 mph - N/A   Clear
1:52 AM 75.9 °F - 71.1 °F 85% 29.76 in 9.0 mi SSW 4.6 mph - N/A   Clear
2:52 AM 75.9 °F - 70.0 °F 82% 29.77 in 10.0 mi SSW 5.8 mph - N/A   Clear
3:52 AM 73.9 °F - 69.1 °F 85% 29.75 in 9.0 mi SSE 5.8 mph - N/A   Clear
4:52 AM 73.9 °F - 69.1 °F 85% 29.74 in 9.0 mi South 6.9 mph - N/A   Clear
5:52 AM 73.9 °F - 69.1 °F 85% 29.74 in 10.0 mi South 8.1 mph - N/A   Clear
6:52 AM 75.9 °F - 68.0 °F 76% 29.78 in 10.0 mi SSE 4.6 mph - N/A   Mostly Cloudy
7:52 AM 75.9 °F - 68.0 °F 76% 29.77 in 10.0 mi South 8.1 mph - N/A   Clear
8:52 AM 78.1 °F - 68.0 °F 71% 29.80 in 10.0 mi Calm Calm - N/A   Clear
9:52 AM 80.1 °F 82.9 °F 69.1 °F 69% 29.84 in 8.0 mi NE 19.6 mph 26.5 mph N/A   Clear
10:52 AM 81.0 °F 83.3 °F 66.9 °F 62% 29.87 in 10.0 mi East 13.8 mph 24.2 mph N/A   Scattered Clouds
11:52 AM 81.0 °F 83.0 °F 66.0 °F 60% 29.84 in 10.0 mi East 16.1 mph 23.0 mph N/A   Partly Cloudy
12:52 PM 81.0 °F 83.3 °F 66.9 °F 62% 29.84 in 10.0 mi SE 11.5 mph - N/A   Clear
1:52 PM 82.0 °F 84.9 °F 68.0 °F 62% 29.85 in 10.0 mi SSE 3.5 mph - N/A   Clear
2:52 PM 84.0 °F 87.8 °F 69.1 °F 61% 29.86 in 10.0 mi NW 5.8 mph - N/A   Partly Cloudy
3:52 PM 84.0 °F 87.8 °F 69.1 °F 61% 29.85 in 10.0 mi NW 6.9 mph - N/A   Clear
4:52 PM 86.0 °F 90.1 °F 69.1 °F 57% 29.84 in 10.0 mi NNW 6.9 mph - N/A   Clear
5:52 PM 87.1 °F 90.6 °F 68.0 °F 53% 29.84 in 10.0 mi NNW 9.2 mph - N/A   Clear
6:52 PM 86.0 °F 90.1 °F 69.1 °F 57% 29.85 in 10.0 mi West 4.6 mph - N/A   Clear
7:52 PM 82.0 °F 85.9 °F 70.0 °F 67% 29.86 in 10.0 mi Calm Calm - N/A   Mostly Cloudy
8:52 PM 82.0 °F 85.5 °F 69.1 °F 65% 29.89 in 10.0 mi NNE 12.7 mph - N/A   Overcast
9:52 PM 79.0 °F - 64.9 °F 62% 29.91 in 10.0 mi NNE 6.9 mph - N/A   Overcast
10:52 PM 77.0 °F - 63.0 °F 62% 29.93 in 10.0 mi North 9.2 mph - N/A   Partly Cloudy
11:52 PM 72.0 °F - 63.0 °F 73% 29.94 in 10.0 mi North 4.6 mph - N/A   Clear